St Pierre — FIDX — position and weather

sailwx.info

Track history (hours):
 
Tides and Currents Weather Stations Pressure Air Temp Water Temp Dewpoint Dewpoint Depression Visibility Wind Speed Wind Dir Waves Ship Positions

St Pierre

Last reported at 2014-Jul-26 06:33 UTC. Time now 2014-Jul-26 07:10 UTC.
Position N 47°17' W 001°56'.

Length 84 m; draft 6.2 m.

Type: Cargo ship. MMSI: 228024800.

Date/timePositionNaut miles runAvg speedWind from/ knotsBaromVisibWave heightAir tempDewpointWater temp
2014-Jul-26 06:33N 47°17' W 001°56'1211.9
2014-Jul-26 05:33N 47°12' W 001°40'26 1.2
2014-Jul-25 08:14N 47°11' W 002°18'1014.8
2014-Jul-25 07:33N 47°18' W 002°08'0 0.4
2014-Jul-25 06:33N 47°18' W 002°07'9 9.5
2014-Jul-25 05:33N 47°17' W 001°53'1111.2
2014-Jul-25 04:33N 47°11' W 001°39'1 0.6
2014-Jul-25 03:33N 47°12' W 001°38'0 0.0
2014-Jul-25 02:33N 47°12' W 001°38'0 0.0
2014-Jul-25 01:33N 47°12' W 001°38'0 0.0
2014-Jul-25 00:33N 47°12' W 001°38'0 0.0
2014-Jul-24 23:29N 47°12' W 001°38'0 0.0
2014-Jul-24 22:33N 47°12' W 001°38'0 0.0
2014-Jul-24 20:25N 47°12' W 001°38'0 0.0
2014-Jul-24 19:33N 47°12' W 001°38'30 2.5
2014-Jul-24 07:32N 47°05' W 002°21'6 6.1
2014-Jul-24 06:33N 47°11' W 002°18'2 2.0
2014-Jul-24 05:33N 47°13' W 002°17'0 0.0
2014-Jul-24 04:33N 47°13' W 002°17'0 0.0
2014-Jul-24 03:33N 47°13' W 002°17'0 0.0
2014-Jul-24 02:33N 47°13' W 002°17'0 0.0
2014-Jul-24 01:20N 47°13' W 002°17'0 0.0
2014-Jul-24 00:33N 47°13' W 002°17'0 0.0
2014-Jul-23 23:30N 47°13' W 002°17'0 0.0
2014-Jul-23 22:31N 47°13' W 002°17'0 0.0
2014-Jul-22 23:33N 47°13' W 002°17'9 0.6
2014-Jul-22 09:09N 47°18' W 002°07'0 0.0
2014-Jul-22 05:31N 47°18' W 002°07'0 0.0
2014-Jul-22 04:33N 47°18' W 002°07'0 0.0
2014-Jul-22 03:19N 47°18' W 002°07'0 0.0
2014-Jul-22 02:33N 47°18' W 002°07'0 0.0
2014-Jul-22 01:26N 47°18' W 002°07'0 0.0
2014-Jul-22 00:23N 47°18' W 002°07'0 0.0
2014-Jul-21 23:26N 47°18' W 002°07'  
2014-Jul-18 09:07N 47°18' W 002°08'0 0.0
2014-Jul-18 08:33N 47°18' W 002°08'0 0.0
2014-Jul-18 07:23N 47°18' W 002°08'0 0.0
2014-Jul-18 06:33N 47°18' W 002°08'0 0.0
2014-Jul-18 05:27N 47°18' W 002°08'0 0.0
2014-Jul-18 04:30N 47°18' W 002°08'0 0.0
2014-Jul-18 02:33N 47°18' W 002°08'0 0.0
2014-Jul-18 01:33N 47°18' W 002°08'0 0.0
2014-Jul-18 00:34N 47°18' W 002°08'0 0.0
2014-Jul-17 23:34N 47°18' W 002°08'0 0.0
2014-Jul-17 22:34N 47°18' W 002°08'0 0.0
2014-Jul-17 21:34N 47°18' W 002°08'0 0.0
2014-Jul-17 20:23N 47°18' W 002°08'0 0.0
2014-Jul-17 18:29N 47°18' W 002°08'0 0.0
2014-Jul-17 17:33N 47°18' W 002°08'0 0.0
2014-Jul-17 08:22N 47°18' W 002°08'0 0.0
2014-Jul-17 07:33N 47°18' W 002°08'0 0.0
2014-Jul-17 06:34N 47°18' W 002°08'0 0.0
2014-Jul-17 05:33N 47°18' W 002°08'0 0.0
2014-Jul-17 04:34N 47°18' W 002°08'0 0.0
2014-Jul-17 03:24N 47°18' W 002°08'15 0.9
2014-Jul-16 10:30N 47°06' W 002°21'  
Track history (hours):
 
Tides and Currents Weather Stations Pressure Air Temp Water Temp Dewpoint Dewpoint Depression Visibility Wind Speed Wind Dir Waves Ship Positions

St Pierre

Last reported at 2014-Jul-26 06:33 UTC. Time now 2014-Jul-26 07:10 UTC.
Position N 47°17' W 001°56'.

Length 84 m; draft 6.2 m.

Type: Cargo ship. MMSI: 228024800.

Date/timePositionNaut miles runAvg speedWind from/ knotsBaromVisibWave heightAir tempDewpointWater temp
2014-Jul-26 06:33N 47°17' W 001°56'1211.9
2014-Jul-26 05:33N 47°12' W 001°40'26 1.2
2014-Jul-25 08:14N 47°11' W 002°18'1014.8
2014-Jul-25 07:33N 47°18' W 002°08'0 0.4
2014-Jul-25 06:33N 47°18' W 002°07'9 9.5
2014-Jul-25 05:33N 47°17' W 001°53'1111.2
2014-Jul-25 04:33N 47°11' W 001°39'1 0.6
2014-Jul-25 03:33N 47°12' W 001°38'0 0.0
2014-Jul-25 02:33N 47°12' W 001°38'0 0.0
2014-Jul-25 01:33N 47°12' W 001°38'0 0.0
2014-Jul-25 00:33N 47°12' W 001°38'0 0.0
2014-Jul-24 23:29N 47°12' W 001°38'0 0.0
2014-Jul-24 22:33N 47°12' W 001°38'0 0.0
2014-Jul-24 20:25N 47°12' W 001°38'0 0.0
2014-Jul-24 19:33N 47°12' W 001°38'30 2.5
2014-Jul-24 07:32N 47°05' W 002°21'6 6.1
2014-Jul-24 06:33N 47°11' W 002°18'2 2.0
2014-Jul-24 05:33N 47°13' W 002°17'0 0.0
2014-Jul-24 04:33N 47°13' W 002°17'0 0.0
2014-Jul-24 03:33N 47°13' W 002°17'0 0.0
2014-Jul-24 02:33N 47°13' W 002°17'0 0.0
2014-Jul-24 01:20N 47°13' W 002°17'0 0.0
2014-Jul-24 00:33N 47°13' W 002°17'0 0.0
2014-Jul-23 23:30N 47°13' W 002°17'0 0.0
2014-Jul-23 22:31N 47°13' W 002°17'0 0.0
2014-Jul-22 23:33N 47°13' W 002°17'9 0.6
2014-Jul-22 09:09N 47°18' W 002°07'0 0.0
2014-Jul-22 05:31N 47°18' W 002°07'0 0.0
2014-Jul-22 04:33N 47°18' W 002°07'0 0.0
2014-Jul-22 03:19N 47°18' W 002°07'0 0.0
2014-Jul-22 02:33N 47°18' W 002°07'0 0.0
2014-Jul-22 01:26N 47°18' W 002°07'0 0.0
2014-Jul-22 00:23N 47°18' W 002°07'0 0.0
2014-Jul-21 23:26N 47°18' W 002°07'  
2014-Jul-18 09:07N 47°18' W 002°08'0 0.0
2014-Jul-18 08:33N 47°18' W 002°08'0 0.0
2014-Jul-18 07:23N 47°18' W 002°08'0 0.0
2014-Jul-18 06:33N 47°18' W 002°08'0 0.0
2014-Jul-18 05:27N 47°18' W 002°08'0 0.0
2014-Jul-18 04:30N 47°18' W 002°08'0 0.0
2014-Jul-18 02:33N 47°18' W 002°08'0 0.0
2014-Jul-18 01:33N 47°18' W 002°08'0 0.0
2014-Jul-18 00:34N 47°18' W 002°08'0 0.0
2014-Jul-17 23:34N 47°18' W 002°08'0 0.0
2014-Jul-17 22:34N 47°18' W 002°08'0 0.0
2014-Jul-17 21:34N 47°18' W 002°08'0 0.0
2014-Jul-17 20:23N 47°18' W 002°08'0 0.0
2014-Jul-17 18:29N 47°18' W 002°08'0 0.0
2014-Jul-17 17:33N 47°18' W 002°08'0 0.0
2014-Jul-17 08:22N 47°18' W 002°08'0 0.0
2014-Jul-17 07:33N 47°18' W 002°08'0 0.0
2014-Jul-17 06:34N 47°18' W 002°08'0 0.0
2014-Jul-17 05:33N 47°18' W 002°08'0 0.0
2014-Jul-17 04:34N 47°18' W 002°08'0 0.0
2014-Jul-17 03:24N 47°18' W 002°08'15 0.9
2014-Jul-16 10:30N 47°06' W 002°21'  

Dump ship's entire track history